Regional Weather Roundup
Issued by NWS Goodland, KS

Home | Current Version | Previous Version | Text Only | Print | Product List | Glossary On
Versions: 1 2 3 4 5 6 7 8 9 10 11 12 13 14 15 16 17 18 19 20 21 22 23 24 25 26 27 28 29 30 31 32 33 34 35 36 37 38 39 40 41 42 43 44 45 46 47 48 49 50
000
ASUS43 KGLD 281608
RWRGLD

GOODLAND FORECAST AREA HOURLY WEATHER ROUNDUP
NATIONAL WEATHER SERVICE GOODLAND KS
900 AM MST WED JAN 28 2015

...OFFICIAL OBSERVATIONS...

CITY           SKY/WX    TMP DP  RH WIND       PRES   REMARKS
GOODLAND KS    CLOUDY    45  32  60 NW13      29.97S
HILL CITY KS   CLOUDY    57  33  40 NW22G36   29.86F
IMPERIAL NEB   PTSUNNY   51  33  50 NW16G22   29.91S
MCCOOK NEB     CLOUDY    51  34  52 W13       29.88S
AKRON CO       PTSUNNY   46  32  58 W14       30.00R
BURLINGTON CO  CLOUDY    45  31  58 NW13      29.99S
LIMON CO       MOSUNNY   47  26  44 W10       30.04S
$$

...UNOFFICIAL OBSERVATIONS...

CITY           SKY/WX    TMP DP  RH WIND       PRES   REMARKS
COLBY KS       SUNNY     52  37  58 W14       29.95R
GOVE KS          N/A     58  32  37 MISG        N/A
NORTON KS      SUNNY     52  30  43 W17G24    29.85F
SHARON SPRINGS   N/A     49  35  58 NW10        N/A
KIT CARSON CO    N/A     44  29  54 MISG        N/A
YUMA CO          N/A     43  33  69 W13         N/A
$$


USA.gov is the U.S. government's official web portal to all federal, state and local government web resources and services.